GW2474 Weather Reports


Display with metric or nautical units.
time (UTC)temp
F
wind
direction
speed
MPH
gust
MPH
rain 1hr
in
rain 24hr
in
rain mn
in
humidity
%
barometer
mb
20260903033123 80 227 1.0 3.0 0.00 0.01 0.01 80 1013.7
20260903031635 80 0 1.0 6.0 0.00 0.01 0.01 80 1013.7
20260903030107 81 270 2.0 6.0 0.00 0.01 0.01 79 1013.6
20260903024603 81 0 1.0 5.0 0.00 0.01 0.01 79 1013.5
20260903023108 81 267 0.0 4.0 0.00 0.01 0.01 78 1013.8
20260903021557 82 266 0.0 6.0 0.00 0.01 0.01 78 1014.0
20260903020105 82 177 0.0 6.0 0.00 0.01 0.01 78 1014.2
20260903014557 82 252 0.0 5.0 0.00 0.01 0.01 77 1014.1
20260903013101 83 0 0.0 4.0 0.00 0.01 0.01 77 1014.1
20260903011606 83 253 0.0 3.0 0.00 0.01 0.01 76 1013.9
20260903010104 84 254 0.0 3.0 0.00 0.01 0.01 75 1013.8
20260903004603 84 242 0.0 4.0 0.00 0.01 0.01 75 1013.6
20260903003101 85 0 0.0 3.0 0.00 0.01 0.01 74 1013.3
20260903001606 86 190 1.0 3.0 0.00 0.01 0.01 72 1013.3
20260902234607 88 201 0.0 4.0 0.00 0.01 0.01 68 1013.6
20260902233108 89 263 1.0 7.0 0.00 0.01 0.01 67 1013.6
20260902231606 90 217 1.0 4.0 0.00 0.01 0.01 65 1013.6
20260902230103 90 309 3.0 8.0 0.00 0.01 0.01 64 1013.6
20260902224608 91 170 2.0 8.0 0.00 0.01 0.01 63 1013.4
20260902223100 91 255 2.0 10.0 0.00 0.01 0.01 61 1013.5
20260902221555 92 153 2.0 6.0 0.00 0.01 0.01 59 1013.7
20260902220106 92 268 2.0 9.0 0.00 0.01 0.01 58 1013.6
20260902214601 92 165 3.0 14.0 0.00 0.02 0.01 57 1013.6
20260902213106 92 264 4.0 16.0 0.00 0.02 0.01 53 1013.7
20260902211606 92 262 4.0 11.0 0.00 0.02 0.01 52 1013.8
20260902210103 92 255 3.0 13.0 0.00 0.02 0.01 53 1013.8
20260902204603 91 282 6.0 12.0 0.00 0.02 0.01 53 1013.9
20260902203127 92 263 6.0 15.0 0.00 0.02 0.01 52 1014.1
20260902201613 91 250 7.0 12.0 0.00 0.02 0.01 54 1014.2
20260902200112 92 299 5.0 14.0 0.00 0.02 0.01 52 1014.4
20260902194601 92 269 8.0 14.0 0.00 0.02 0.01 52 1014.5
20260902193105 90 303 5.0 12.0 0.00 0.02 0.01 58 1014.7
20260902191605 89 268 3.0 9.0 0.00 0.02 0.01 61 1015.0
20260902190107 90 285 3.0 9.0 0.00 0.02 0.01 59 1015.0
20260902184604 91 281 4.0 12.0 0.00 0.02 0.01 58 1015.0
20260902183125 91 307 5.0 18.0 0.00 0.02 0.01 58 1015.3
20260902181607 91 257 4.0 13.0 0.00 0.02 0.01 57 1015.6
20260902180108 90 274 5.0 15.0 0.00 0.02 0.01 59 1015.6
20260902174608 90 284 7.0 15.0 0.00 0.02 0.01 58 1015.8
20260902173102 91 265 3.0 9.0 0.00 0.02 0.01 63 1015.8
20260902171604 90 302 3.0 12.0 0.00 0.02 0.01 65 1015.8
20260902170055 89 280 3.0 9.0 0.00 0.02 0.01 66 1015.9
20260902164606 88 257 6.0 11.0 0.00 0.02 0.01 65 1016.1
20260902163128 87 198 5.0 10.0 0.00 0.02 0.01 66 1016.3
20260902161608 87 310 4.0 12.0 0.00 0.02 0.01 68 1016.5
20260902160050 86 313 5.0 10.0 0.00 0.02 0.01 68 1016.4
20260902154603 86 263 5.0 10.0 0.00 0.02 0.01 70 1016.6
20260902153107 85 249 4.0 10.0 0.00 0.02 0.01 73 1016.6
20260902151607 84 235 3.0 7.0 0.00 0.02 0.01 75 1016.5
20260902144603 81 267 2.0 8.0 0.00 0.02 0.01 78 1016.4
20260902143106 81 271 2.0 6.0 0.00 0.02 0.01 80 1016.2
20260902141609 80 287 2.0 7.0 0.00 0.02 0.01 81 1016.2
20260902140107 79 268 3.0 8.0 0.00 0.02 0.01 82 1016.1
20260902134601 78 283 3.0 9.0 0.00 0.02 0.01 83 1016.0
20260902133110 77 244 3.0 8.0 0.00 0.02 0.01 83 1016.0
20260902131611 76 278 3.0 8.0 0.00 0.02 0.01 84 1016.2
20260902130105 75 243 2.0 8.0 0.00 0.02 0.01 85 1016.0
20260902124602 74 287 3.0 7.0 0.00 0.02 0.01 86 1016.0
20260902123115 73 251 1.0 6.0 0.00 0.02 0.01 87 1016.0
20260902121558 73 269 2.0 4.0 0.00 0.02 0.01 87 1016.0
20260902120112 73 263 1.0 3.0 0.00 0.02 0.01 86 1016.1
20260902114559 72 0 0.0 4.0 0.00 0.02 0.01 86 1016.0
20260902113055 72 0 0.0 2.0 0.00 0.02 0.01 86 1016.0
20260902111607 72 0 0.0 2.0 0.00 0.02 0.01 86 1016.1
20260902104557 73 0 0.0 2.0 0.00 0.02 0.01 86 1016.0
20260902103055 73 252 1.0 2.0 0.00 0.02 0.01 86 1016.1
20260902101559 73 0 0.0 3.0 0.01 0.02 0.01 86 1016.0
20260902100106 74 0 0.0 3.0 0.01 0.02 0.01 86 1016.0
20260902094557 74 254 1.0 4.0 0.01 0.02 0.01 86 1015.9
20260902093055 74 254 0.0 3.0 0.01 0.02 0.01 86 1015.9
20260902091609 74 0 0.0 2.0 0.00 0.01 0.00 85 1015.6
20260902084552 74 259 1.0 4.0 0.00 0.01 0.00 86 1015.6
20260902083136 75 0 1.0 5.0 0.00 0.01 0.00 86 1015.6
20260902081559 75 261 0.0 2.0 0.00 0.01 0.00 86 1015.5
20260902080105 75 261 0.0 3.0 0.00 0.01 0.00 86 1015.5
20260902074613 75 263 0.0 6.0 0.00 0.01 0.00 86 1015.6
20260902073108 74 0 1.0 3.0 0.00 0.01 0.00 86 1015.5
20260902071607 74 0 1.0 2.0 0.00 0.01 0.00 86 1015.5
20260902070056 73 0 0.0 1.0 0.00 0.01 0.00 85 1015.3
20260902064603 73 0 0.0 1.0 0.00 0.01 0.00 85 1015.3
20260902063104 73 0 0.0 1.0 0.00 0.01 0.00 85 1015.3
20260902061603 72 0 0.0 1.0 0.00 0.01 0.00 85 1015.4
20260902060120 72 0 0.0 0.0 0.00 0.01 0.00 84 1015.6
20260902054551 71 0 0.0 0.0 0.00 0.01 0.00 84 1015.8
20260902053110 72 0 0.0 1.0 0.00 0.01 0.00 84 1015.8
20260902051600 72 0 0.0 1.0 0.00 0.01 0.00 84 1015.6
20260902044604 72 0 0.0 1.0 0.00 0.01 0.00 84 1015.6
20260902043101 72 0 0.0 0.0 0.00 0.01 0.00 84 1015.6
20260902041554 72 0 0.0 0.0 0.00 0.01 0.00 84 1015.7
20260902040056 71 0 0.0 0.0 0.00 0.01 0.00 84 1015.8
20260902034603 71 0 0.0 1.0 0.00 0.01 0.01 84 1015.7